Regional Weather Roundup
Issued by NWS Sioux Falls, SD

Home | Current Version | Previous Version | Text Only | Print | Product List | Glossary On
Versions: 1 2 3 4 5 6 7 8 9 10 11 12 13 14 15 16 17 18 19 20 21 22 23 24 25 26 27 28 29 30 31 32 33 34 35 36 37 38 39 40 41 42 43 44 45 46 47 48 49 50
000
ASUS43 KFSD 200810
RWRFSD

WEATHER ROUNDUP FOR SE SOUTH DAKOTA/SW MINNESOTA/NW IOWA
NATIONAL WEATHER SERVICE SIOUX FALLS SD
300 AM CDT SAT SEP 20 2014

NOTE: "FAIR" INDICATES FEW OR NO CLOUDS BELOW 12,000 FEET WITH NO
SIGNIFICANT WEATHER AND OR OBSTRUCTIONS TO VISIBILITY.


SDZ038>040-050-052>070-200900-
SOUTHEAST SOUTH DAKOTA

CITY           SKY/WX    TMP DP  RH WIND       PRES   REMARKS
CHAMBERLAIN    MOCLDY    64  53  66 W6        29.87S
HURON          MOCLDY    64  52  64 NW9       29.81R
MADISON        FAIR      61  57  88 MISG      29.81R
MITCHELL       MOCLDY    66  54  65 NW7       29.83R
SIOUX FALLS    PTCLDY    67  58  72 W7        29.80R
WINNER         FAIR      63  56  78 W8        29.91R
YANKTON        CLOUDY    70  63  78 W8        29.80R
$$

MNZ071-072-080-081-089-090-097-098-200900-
SOUTHWEST MINNESOTA

CITY           SKY/WX    TMP DP  RH WIND       PRES   REMARKS
FAIRMONT       CLOUDY    64  55  72 S10       29.77R
JACKSON        CLOUDY    66  63  88 SW8       29.77F
LUVERNE        MOCLDY    64  61  88 CALM      29.78S
MARSHALL       CLEAR     63  55  77 W8        29.75R
MONTEVIDEO     CLEAR     64  57  77 NW7       29.76R
PIPESTONE      PTCLDY    66  59  77 NW6       29.79R
REDWOOD FALLS  PTCLDY    66  60  81 NW9       29.72R
TRACY          PTCLDY    68  60  75 CALM      29.76S
WINDOM         MOCLDY    66  63  88 W5        29.77S
WORTHINGTON    MOCLDY    66  64  94 SW6       29.78S
$$

IAZ001>003-012>014-020>022-031-032-NEZ013-014-SDZ071-200900-
NORTHWEST IOWA

CITY           SKY/WX    TMP DP  RH WIND       PRES   REMARKS
CHEROKEE       CLOUDY    65  65  99 CALM      29.80F
DENISON        HVY RAIN  64  64 100 NW14G22   29.87R
ESTHERVILLE    CLOUDY    65  63  93 SW9       29.78R
LE MARS          N/A     66  64  94 S3        29.80R
ORANGE CITY    MOCLDY    64  63  94 S6        29.81R
SHELDON        MOCLDY    64  64 100 S5G12     29.78R
SIOUX CITY     MOCLDY    65  64  97 SW6       29.80S
SPENCER        CLOUDY    66  63  90 SW12      29.79R
$$

ABBREVIATIONS USED IN REMARKS
   TC - TEMPERATURE IN CELSIUS
  WCI - WIND CHILL INDEX
   HX - HEAT INDEX
  VSB - VISIBILITY



USA.gov is the U.S. government's official web portal to all federal, state and local government web resources and services.